This is the latest recevied weather packets stored in our database for station/object AJ5AG. If no packets are shown the sender has not sent any weather packets the latest 10 day(s).
| Time | Temp. | Humidity | Pressure | Rain* | Wind** | Luminosity | Snow |
|---|---|---|---|---|---|---|---|
| 1777157663 | 31.67° C | 58% | 1008.4 hPa | 0 mm | - | 96 W/m² | - |
| 1777157360 | 31.67° C | 58% | 1008.6 hPa | 0 mm | - | 131 W/m² | - |
| 1777157059 | 31.67° C | 59% | 1008.3 hPa | 0 mm | - | 83 W/m² | - |
| 1777156754 | 31.67° C | 58% | 1008.3 hPa | 0 mm | - | 111 W/m² | - |
| 1777156451 | 31.67° C | 58% | 1008.6 hPa | 0 mm | - | 93 W/m² | - |
| 1777156147 | 31.67° C | 58% | 1008.4 hPa | 0 mm | - | 154 W/m² | - |
| 1777155844 | 31.67° C | 57% | 1008.5 hPa | 0 mm | - | 170 W/m² | - |
| 1777155544 | 31.67° C | 58% | 1008.7 hPa | 0 mm | - | 140 W/m² | - |
| 1777155242 | 31.67° C | 57% | 1008.7 hPa | 0 mm | - | 126 W/m² | - |
| 1777154939 | 31.67° C | 57% | 1008.7 hPa | 0 mm | - | 117 W/m² | - |
| 1777154636 | 32.22° C | 58% | 1008.7 hPa | 0 mm | - | 120 W/m² | - |
| 1777154332 | 32.22° C | 57% | 1008.8 hPa | 0 mm | - | 138 W/m² | - |
| 1777154027 | 32.22° C | 57% | 1008.7 hPa | 0 mm | - | 148 W/m² | - |
| 1777153724 | 32.22° C | 57% | 1008.8 hPa | 0 mm | - | 218 W/m² | - |
| 1777153420 | 31.67° C | 57% | 1008.6 hPa | 0 mm | - | 275 W/m² | - |
| 1777153116 | 31.67° C | 57% | 1008.8 hPa | 0 mm | - | 168 W/m² | - |
| 1777152813 | 31.67° C | 59% | 1008.9 hPa | 0 mm | - | 146 W/m² | - |
| 1777152509 | 31.67° C | 59% | 1008.9 hPa | 0 mm | - | 167 W/m² | - |
| 1777152206 | 31.67° C | 60% | 1008.9 hPa | 0 mm | - | 154 W/m² | - |
| 1777151901 | 31.11° C | 58% | 1008.9 hPa | 0 mm | - | 154 W/m² | - |
| 1777151598 | 31.67° C | 58% | 1008.9 hPa | 0 mm | - | 153 W/m² | - |
| 1777151295 | 31.11° C | 60% | 1009 hPa | 0 mm | - | 192 W/m² | - |
| 1777150995 | 31.67° C | 59% | 1009.1 hPa | 0 mm | - | 123 W/m² | - |
| 1777150689 | 31.11° C | 59% | 1009.1 hPa | 0 mm | - | 218 W/m² | - |
| 1777150385 | 31.11° C | 60% | 1009.1 hPa | 0 mm | - | 196 W/m² | - |
* Rain latest hour (hover to see other rain measurements)
** Current wind speed in m/s (hover to see current wind gust speed)